{"data":{"norad_id":58092,"intl_designator":"2023-160T","name":"STARLINK-30615","alt_names":[],"object_type":"PAYLOAD","status":"ACTIVE","operator":null,"country":"US","launch_date":"2023-10-18","launch_site_code":"AFETR","launch_vehicle":null,"mission":null,"orbit_class":"UNKNOWN","rcs_meters":null,"size_class":null,"mass_kg":null,"dimensions":null,"purposes":["comms"],"wikipedia_slug":null,"has_3d_model":false,"image_url":null,"decayed_at":null,"tle_current":{"epoch":"2026-09-20T16:42:50.831424Z","epoch_age_seconds":123517,"freshness":"FRESH","line1":"1 58092U 23160T   26263.69642166 -.00000852  00000+0 -21447-4 0  9993","line2":"2 58092  43.0034  57.0924 0002183 265.0390  95.0213 15.27570182162766","mean_motion":15.27570182,"eccentricity":0.0002183,"inclination_deg":43.0034,"raan_deg":57.0924,"arg_perigee_deg":265.039,"mean_anomaly_deg":95.0213,"bstar":-2.1447e-5,"rev_number":16276,"period_min":94.267354584956,"perigee_km":481.5806914786,"apogee_km":484.57629816364,"semimajor_km":6861.2154948211,"source":"CELESTRAK","updated_at":"2026-09-21T09:00:33.784824Z"}}}